| time (UTC) | temp C | wind direction | speed KPH | gust KPH | rain 1hr cm | rain 24hr cm | rain mn cm | humidity % | barometer mb |
| 20260904042510 | 16 | 259 | 25.7 | 29.0 | 0.00 | 0.00 | 0.00 | 85 | |
| 20260904042011 | 16 | 271 | 20.9 | 25.7 | 0.00 | 0.00 | 0.00 | 85 | |
| 20260904041512 | 16 | 270 | 25.7 | 29.0 | 0.00 | 0.00 | 0.00 | 84 | |
| 20260904041010 | 16 | 272 | 32.2 | 32.2 | 0.00 | 0.00 | 0.00 | 85 | |
| 20260904040510 | 15 | 270 | 29.0 | 29.0 | 0.00 | 0.00 | 0.00 | 86 | |
| 20260904040010 | 15 | 268 | 25.7 | 29.0 | 0.00 | 0.00 | 0.00 | 86 | |
| 20260904035511 | 16 | 271 | 25.7 | 29.0 | 0.00 | 0.00 | 0.00 | 86 | |
| 20260904035010 | 15 | 270 | 25.7 | 29.0 | 0.00 | 0.00 | 0.00 | 86 | |
| 20260904034511 | 16 | 266 | 25.7 | 25.7 | 0.00 | 0.00 | 0.00 | 85 | |
| 20260904034011 | 16 | 268 | 25.7 | 29.0 | 0.00 | 0.00 | 0.00 | 85 | |
| 20260904033510 | 16 | 260 | 29.0 | 29.0 | 0.00 | 0.00 | 0.00 | 85 | |
| 20260904033010 | 16 | 257 | 25.7 | 29.0 | 0.00 | 0.00 | 0.00 | 85 | |
| 20260904032509 | 16 | 252 | 25.7 | 29.0 | 0.00 | 0.00 | 0.00 | 85 | |
| 20260904032016 | 15 | 258 | 29.0 | 32.2 | 0.00 | 0.00 | 0.00 | 85 | |
| 20260904031510 | 15 | 257 | 25.7 | 29.0 | 0.00 | 0.00 | 0.00 | 85 | |
| 20260904031010 | 15 | 254 | 25.7 | 25.7 | 0.00 | 0.00 | 0.00 | 85 | |
| 20260904030510 | 15 | 264 | 25.7 | 29.0 | 0.00 | 0.00 | 0.00 | 85 | |
| 20260904030011 | 15 | 260 | 25.7 | 25.7 | 0.00 | 0.00 | 0.00 | 85 | |
| 20260904025510 | 15 | 264 | 25.7 | 29.0 | 0.00 | 0.00 | 0.00 | 85 | |
| 20260904025010 | 15 | 271 | 25.7 | 29.0 | 0.00 | 0.00 | 0.00 | 85 | |
| 20260904024511 | 15 | 266 | 25.7 | 25.7 | 0.00 | 0.00 | 0.00 | 85 | |
| 20260904024011 | 15 | 274 | 25.7 | 25.7 | 0.00 | 0.00 | 0.00 | 85 | |
| 20260904023510 | 15 | 274 | 25.7 | 29.0 | 0.00 | 0.00 | 0.00 | 85 | |
| 20260904023010 | 15 | 271 | 29.0 | 29.0 | 0.00 | 0.00 | 0.00 | 85 | |
| 20260904022510 | 15 | 270 | 29.0 | 29.0 | 0.00 | 0.00 | 0.00 | 86 | |
| 20260904022017 | 15 | 268 | 25.7 | 29.0 | 0.00 | 0.00 | 0.00 | 86 | |
| 20260904021510 | 15 | 268 | 25.7 | 29.0 | 0.00 | 0.00 | 0.00 | 85 | |
| 20260904021010 | 15 | 269 | 29.0 | 29.0 | 0.00 | 0.00 | 0.00 | 85 | |
| 20260904020010 | 15 | 267 | 25.7 | 29.0 | 0.00 | 0.00 | 0.00 | 85 | |
| 20260904015510 | 15 | 274 | 25.7 | 29.0 | 0.00 | 0.00 | 0.00 | 84 | |
| 20260904015010 | 15 | 271 | 29.0 | 32.2 | 0.00 | 0.00 | 0.00 | 84 | |
| 20260904014511 | 15 | 267 | 29.0 | 32.2 | 0.00 | 0.00 | 0.00 | 85 | |
| 20260904014010 | 15 | 263 | 29.0 | 29.0 | 0.00 | 0.00 | 0.00 | 85 | |
| 20260904013510 | 15 | 265 | 25.7 | 29.0 | 0.00 | 0.00 | 0.00 | 85 | |
| 20260904013010 | 15 | 267 | 25.7 | 25.7 | 0.00 | 0.00 | 0.00 | 85 | |
| 20260904012515 | 15 | 270 | 25.7 | 25.7 | 0.00 | 0.00 | 0.00 | 85 | |
| 20260904012011 | 15 | 272 | 29.0 | 32.2 | 0.00 | 0.00 | 0.00 | 85 | |
| 20260904011510 | 15 | 272 | 29.0 | 29.0 | 0.00 | 0.00 | 0.00 | 85 | |
| 20260904011010 | 15 | 273 | 29.0 | 29.0 | 0.00 | 0.00 | 0.00 | 85 | |
| 20260904010510 | 15 | 275 | 25.7 | 29.0 | 0.00 | 0.00 | 0.00 | 85 | |
| 20260904010010 | 15 | 274 | 25.7 | 29.0 | 0.00 | 0.00 | 0.00 | 85 | |
| 20260904005510 | 15 | 276 | 25.7 | 29.0 | 0.00 | 0.00 | 0.00 | 85 | |
| 20260904005010 | 15 | 278 | 25.7 | 25.7 | 0.00 | 0.00 | 0.00 | 84 | |
| 20260904004510 | 15 | 273 | 20.9 | 25.7 | 0.00 | 0.00 | 0.00 | 83 | |
| 20260904004010 | 15 | 276 | 20.9 | 20.9 | 0.00 | 0.00 | 0.00 | 84 | |
| 20260904003510 | 15 | 279 | 20.9 | 25.7 | 0.00 | 0.00 | 0.00 | 82 | |
| 20260904003011 | 15 | 282 | 25.7 | 25.7 | 0.00 | 0.00 | 0.00 | 84 | |
| 20260904002511 | 15 | 278 | 25.7 | 29.0 | 0.00 | 0.00 | 0.00 | 84 | |
| 20260904002017 | 15 | 279 | 25.7 | 29.0 | 0.00 | 0.00 | 0.00 | 84 | |
| 20260904001510 | 15 | 278 | 29.0 | 32.2 | 0.00 | 0.00 | 0.00 | 83 | |
| 20260904001011 | 15 | 275 | 29.0 | 32.2 | 0.00 | 0.00 | 0.00 | 83 | |
| 20260904000011 | 15 | 276 | 29.0 | 32.2 | 0.00 | 0.00 | 0.00 | 83 | |
| 20260903235510 | 15 | 275 | 29.0 | 29.0 | 0.00 | 0.00 | 0.00 | 83 | |
| 20260903235010 | 15 | 274 | 25.7 | 29.0 | 0.00 | 0.00 | 0.00 | 83 | |
| 20260903234510 | 15 | 274 | 32.2 | 32.2 | 0.00 | 0.00 | 0.00 | 83 | |
| 20260903234010 | 15 | 275 | 32.2 | 35.4 | 0.00 | 0.00 | 0.00 | 83 | |
| 20260903233510 | 15 | 273 | 32.2 | 35.4 | 0.00 | 0.00 | 0.00 | 83 | |
| 20260903233010 | 15 | 276 | 32.2 | 35.4 | 0.00 | 0.00 | 0.00 | 82 | |
| 20260903232511 | 15 | 274 | 35.4 | 35.4 | 0.00 | 0.00 | 0.00 | 82 | |
| 20260903232018 | 15 | 271 | 35.4 | 35.4 | 0.00 | 0.00 | 0.00 | 82 | |
| 20260903231510 | 15 | 271 | 35.4 | 40.2 | 0.00 | 0.00 | 0.00 | 82 | |
| 20260903231009 | 15 | 271 | 32.2 | 35.4 | 0.00 | 0.00 | 0.00 | 82 | |
| 20260903230511 | 15 | 277 | 32.2 | 35.4 | 0.00 | 0.00 | 0.00 | 82 | |
| 20260903230010 | 15 | 275 | 32.2 | 35.4 | 0.00 | 0.00 | 0.00 | 82 | |
| 20260903225510 | 15 | 272 | 32.2 | 32.2 | 0.00 | 0.00 | 0.00 | 82 | |
| 20260903225011 | 15 | 276 | 32.2 | 35.4 | 0.00 | 0.00 | 0.00 | 82 | |
| 20260903224511 | 15 | 278 | 29.0 | 29.0 | 0.00 | 0.00 | 0.00 | 82 | |
| 20260903224010 | 15 | 273 | 29.0 | 32.2 | 0.00 | 0.00 | 0.00 | 82 | |
| 20260903223511 | 16 | 272 | 32.2 | 32.2 | 0.00 | 0.00 | 0.00 | 81 | |
| 20260903223010 | 16 | 269 | 29.0 | 32.2 | 0.00 | 0.00 | 0.00 | 80 | |
| 20260903222511 | 15 | 272 | 32.2 | 35.4 | 0.00 | 0.00 | 0.00 | 80 | |
| 20260903222011 | 16 | 271 | 29.0 | 32.2 | 0.00 | 0.00 | 0.00 | 80 | |
| 20260903221510 | 15 | 272 | 32.2 | 32.2 | 0.00 | 0.00 | 0.00 | 80 | |
| 20260903221009 | 15 | 270 | 32.2 | 32.2 | 0.00 | 0.00 | 0.00 | 80 | |
| 20260903220510 | 15 | 273 | 29.0 | 32.2 | 0.00 | 0.00 | 0.00 | 81 | |
| 20260903220011 | 16 | 269 | 32.2 | 35.4 | 0.00 | 0.00 | 0.00 | 80 | |
| 20260903215511 | 15 | 269 | 25.7 | 29.0 | 0.00 | 0.00 | 0.00 | 80 | |
| 20260903215010 | 16 | 272 | 32.2 | 40.2 | 0.00 | 0.00 | 0.00 | 80 | |
| 20260903214511 | 16 | 269 | 32.2 | 40.2 | 0.00 | 0.00 | 0.00 | 80 | |
| 20260903214010 | 16 | 269 | 32.2 | 40.2 | 0.00 | 0.00 | 0.00 | 79 | |
| 20260903213511 | 16 | 270 | 32.2 | 35.4 | 0.00 | 0.00 | 0.00 | 79 | |
| 20260903213011 | 16 | 274 | 35.4 | 40.2 | 0.00 | 0.00 | 0.00 | 78 | |
| 20260903212511 | 16 | 276 | 35.4 | 35.4 | 0.00 | 0.00 | 0.00 | 78 | |
| 20260903212018 | 16 | 274 | 32.2 | 35.4 | 0.00 | 0.00 | 0.00 | 77 | |
| 20260903211511 | 16 | 275 | 35.4 | 35.4 | 0.00 | 0.00 | 0.00 | 76 | |
| 20260903211010 | 16 | 274 | 32.2 | 35.4 | 0.00 | 0.00 | 0.00 | 76 | |
| 20260903210510 | 16 | 277 | 32.2 | 35.4 | 0.00 | 0.00 | 0.00 | 76 | |
| 20260903210010 | 16 | 275 | 32.2 | 35.4 | 0.00 | 0.00 | 0.00 | 75 | |
| 20260903205510 | 17 | 278 | 35.4 | 40.2 | 0.00 | 0.00 | 0.00 | 74 | |
| 20260903205011 | 17 | 276 | 35.4 | 40.2 | 0.00 | 0.00 | 0.00 | 74 | |
| 20260903204511 | 17 | 277 | 32.2 | 35.4 | 0.00 | 0.00 | 0.00 | 74 | |
| 20260903204010 | 17 | 278 | 29.0 | 32.2 | 0.00 | 0.00 | 0.00 | 74 | |
| 20260903203510 | 16 | 272 | 32.2 | 35.4 | 0.00 | 0.00 | 0.00 | 74 | |
| 20260903203011 | 17 | 273 | 32.2 | 40.2 | 0.00 | 0.00 | 0.00 | 74 | |
| 20260903202511 | 17 | 274 | 35.4 | 40.2 | 0.00 | 0.00 | 0.00 | 74 | |
| 20260903202018 | 16 | 275 | 35.4 | 43.5 | 0.00 | 0.00 | 0.00 | 75 | |
| 20260903201511 | 16 | 272 | 35.4 | 43.5 | 0.00 | 0.00 | 0.00 | 75 | |
| 20260903201010 | 16 | 271 | 32.2 | 40.2 | 0.00 | 0.00 | 0.00 | 75 | |
| 20260903200511 | 16 | 267 | 35.4 | 35.4 | 0.00 | 0.00 | 0.00 | 76 | |
| 20260903200010 | 16 | 268 | 32.2 | 35.4 | 0.00 | 0.00 | 0.00 | 76 | |
| 20260903195510 | 16 | 269 | 32.2 | 35.4 | 0.00 | 0.00 | 0.00 | 76 | |
| 20260903195011 | 16 | 268 | 35.4 | 40.2 | 0.00 | 0.00 | 0.00 | 76 | |
| 20260903194510 | 16 | 267 | 35.4 | 40.2 | 0.00 | 0.00 | 0.00 | 76 | |
| 20260903194010 | 16 | 271 | 35.4 | 35.4 | 0.00 | 0.00 | 0.00 | 76 | |
| 20260903193510 | 16 | 270 | 35.4 | 40.2 | 0.00 | 0.00 | 0.00 | 76 | |
| 20260903193011 | 16 | 269 | 40.2 | 43.5 | 0.00 | 0.00 | 0.00 | 76 | |
| 20260903192510 | 16 | 270 | 43.5 | 46.7 | 0.00 | 0.00 | 0.00 | 76 | |
| 20260903192010 | 16 | 259 | 35.4 | 40.2 | 0.00 | 0.00 | 0.00 | 78 | |
| 20260903191517 | 16 | 250 | 32.2 | 32.2 | 0.00 | 0.00 | 0.00 | 78 | |
| 20260903191009 | 16 | 247 | 25.7 | 29.0 | 0.00 | 0.00 | 0.00 | 79 | |
| 20260903190511 | 16 | 249 | 25.7 | 25.7 | 0.00 | 0.00 | 0.00 | 78 | |
| 20260903190011 | 16 | 235 | 25.7 | 29.0 | 0.00 | 0.00 | 0.00 | 78 | |
| 20260903185510 | 16 | 233 | 25.7 | 29.0 | 0.00 | 0.00 | 0.00 | 78 | |
| 20260903185012 | 16 | 247 | 20.9 | 25.7 | 0.00 | 0.00 | 0.00 | 78 | |
| 20260903184510 | 16 | 251 | 20.9 | 25.7 | 0.00 | 0.00 | 0.00 | 76 | |
| 20260903184010 | 16 | 247 | 20.9 | 25.7 | 0.00 | 0.00 | 0.00 | 77 | |
| 20260903183511 | 16 | 249 | 17.7 | 17.7 | 0.00 | 0.00 | 0.00 | 76 | |
| 20260903183010 | 16 | 262 | 20.9 | 25.7 | 0.00 | 0.00 | 0.00 | 76 | |
| 20260903182511 | 16 | 256 | 20.9 | 25.7 | 0.00 | 0.00 | 0.00 | 77 | |
| 20260903182018 | 16 | 251 | 20.9 | 20.9 | 0.00 | 0.00 | 0.00 | 77 | |
| 20260903181511 | 16 | 262 | 25.7 | 29.0 | 0.00 | 0.00 | 0.00 | 77 | |
| 20260903181009 | 16 | 256 | 25.7 | 25.7 | 0.00 | 0.00 | 0.00 | 77 | |
| 20260903180510 | 16 | 267 | 29.0 | 32.2 | 0.00 | 0.00 | 0.00 | 76 | |
| 20260903180011 | 16 | 263 | 29.0 | 29.0 | 0.00 | 0.00 | 0.00 | 77 | |
| 20260903175510 | 16 | 261 | 29.0 | 32.2 | 0.00 | 0.00 | 0.00 | 77 | |
| 20260903175010 | 16 | 264 | 29.0 | 32.2 | 0.00 | 0.00 | 0.00 | 77 | |
| 20260903174510 | 16 | 262 | 29.0 | 32.2 | 0.00 | 0.00 | 0.00 | 77 | |
| 20260903174010 | 16 | 262 | 29.0 | 32.2 | 0.00 | 0.00 | 0.00 | 76 | |
| 20260903173510 | 16 | 267 | 32.2 | 32.2 | 0.00 | 0.00 | 0.00 | 75 | |
| 20260903173011 | 16 | 272 | 35.4 | 35.4 | 0.00 | 0.00 | 0.00 | 75 | |
| 20260903172511 | 16 | 274 | 35.4 | 40.2 | 0.00 | 0.00 | 0.00 | 75 | |
| 20260903172013 | 16 | 270 | 40.2 | 43.5 | 0.00 | 0.00 | 0.00 | 74 | |
| 20260903171511 | 16 | 271 | 43.5 | 46.7 | 0.00 | 0.00 | 0.00 | 74 | |
| 20260903171011 | 17 | 269 | 43.5 | 46.7 | 0.00 | 0.00 | 0.00 | 73 | |
| 20260903170510 | 17 | 261 | 40.2 | 43.5 | 0.00 | 0.00 | 0.00 | 72 | |
| 20260903170010 | 17 | 259 | 35.4 | 40.2 | 0.00 | 0.00 | 0.00 | 70 | |
| 20260903165511 | 17 | 259 | 35.4 | 43.5 | 0.00 | 0.00 | 0.00 | 70 | |
| 20260903165010 | 17 | 267 | 35.4 | 43.5 | 0.00 | 0.00 | 0.00 | 69 | |
| 20260903164510 | 17 | 259 | 35.4 | 43.5 | 0.00 | 0.00 | 0.00 | 68 | |
| 20260903164010 | 17 | 267 | 40.2 | 43.5 | 0.00 | 0.00 | 0.00 | 68 | |
| 20260903163510 | 17 | 270 | 40.2 | 46.7 | 0.00 | 0.00 | 0.00 | 68 | |
| 20260903163011 | 17 | 271 | 40.2 | 46.7 | 0.00 | 0.00 | 0.00 | 68 | |
| 20260903162515 | 17 | 273 | 43.5 | 49.9 | 0.00 | 0.00 | 0.00 | 68 | |
| 20260903162011 | 17 | 272 | 43.5 | 49.9 | 0.00 | 0.00 | 0.00 | 67 | |
| 20260903161511 | 17 | 269 | 46.7 | 49.9 | 0.00 | 0.00 | 0.00 | 66 | |
| 20260903161009 | 17 | 269 | 43.5 | 49.9 | 0.00 | 0.00 | 0.00 | 64 | |
| 20260903160509 | 17 | 283 | 46.7 | 54.7 | 0.00 | 0.00 | 0.00 | 63 | |
| 20260903160011 | 17 | 273 | 49.9 | 61.2 | 0.00 | 0.00 | 0.00 | 62 | |
| 20260903155510 | 17 | 272 | 49.9 | 54.7 | 0.00 | 0.00 | 0.00 | 61 | |
| 20260903155011 | 18 | 276 | 49.9 | 57.9 | 0.00 | 0.00 | 0.00 | 61 | |
| 20260903154511 | 18 | 271 | 49.9 | 57.9 | 0.00 | 0.00 | 0.00 | 60 | |
| 20260903154010 | 18 | 275 | 57.9 | 61.2 | 0.00 | 0.00 | 0.00 | 59 | |
| 20260903153511 | 18 | 272 | 54.7 | 61.2 | 0.00 | 0.00 | 0.00 | 58 | |
| 20260903153011 | 18 | 271 | 54.7 | 57.9 | 0.00 | 0.00 | 0.00 | 56 | |
| 20260903152510 | 20 | 274 | 54.7 | 61.2 | 0.00 | 0.00 | 0.00 | 55 | |
| 20260903152017 | 20 | 272 | 54.7 | 61.2 | 0.00 | 0.00 | 0.00 | 55 | |
| 20260903151510 | 20 | 275 | 49.9 | 61.2 | 0.00 | 0.00 | 0.00 | 54 | |
| 20260903151009 | 20 | 276 | 49.9 | 57.9 | 0.00 | 0.00 | 0.00 | 54 | |
| 20260903150511 | 20 | 279 | 46.7 | 49.9 | 0.00 | 0.00 | 0.00 | 54 | |
| 20260903150010 | 20 | 267 | 43.5 | 49.9 | 0.00 | 0.00 | 0.00 | 53 | |
| 20260903145510 | 20 | 269 | 40.2 | 43.5 | 0.00 | 0.00 | 0.00 | 53 | |
| 20260903145011 | 20 | 277 | 40.2 | 46.7 | 0.00 | 0.00 | 0.00 | 52 | |
| 20260903144510 | 20 | 266 | 43.5 | 49.9 | 0.00 | 0.00 | 0.00 | 52 | |
| 20260903144009 | 20 | 272 | 43.5 | 49.9 | 0.00 | 0.00 | 0.00 | 52 | |
| 20260903143511 | 21 | 268 | 46.7 | 49.9 | 0.00 | 0.00 | 0.00 | 51 | |
| 20260903143010 | 21 | 274 | 43.5 | 46.7 | 0.00 | 0.00 | 0.00 | 51 | |
| 20260903142510 | 21 | 267 | 40.2 | 46.7 | 0.00 | 0.00 | 0.00 | 51 | |
| 20260903142018 | 21 | 265 | 40.2 | 43.5 | 0.00 | 0.00 | 0.00 | 51 | |
| 20260903141510 | 21 | 264 | 35.4 | 43.5 | 0.00 | 0.00 | 0.00 | 51 | |
| 20260903141010 | 21 | 254 | 32.2 | 35.4 | 0.00 | 0.00 | 0.00 | 50 | |
| 20260903140510 | 21 | 263 | 29.0 | 35.4 | 0.00 | 0.00 | 0.00 | 50 | |
| 20260903140011 | 21 | 257 | 35.4 | 40.2 | 0.00 | 0.00 | 0.00 | 50 | |
| 20260903135510 | 21 | 259 | 35.4 | 43.5 | 0.00 | 0.00 | 0.00 | 50 | |
| 20260903135010 | 21 | 257 | 35.4 | 43.5 | 0.00 | 0.00 | 0.00 | 49 | |
| 20260903134510 | 21 | 251 | 35.4 | 43.5 | 0.00 | 0.00 | 0.00 | 49 | |
| 20260903134011 | 21 | 253 | 32.2 | 35.4 | 0.00 | 0.00 | 0.00 | 49 | |
| 20260903133510 | 21 | 255 | 32.2 | 40.2 | 0.00 | 0.00 | 0.00 | 49 | |
| 20260903133011 | 21 | 266 | 32.2 | 35.4 | 0.00 | 0.00 | 0.00 | 49 | |
| 20260903132511 | 21 | 251 | 11.3 | 14.5 | 0.00 | 0.00 | 0.00 | 51 | |
| 20260903132010 | 21 | 257 | 14.5 | 17.7 | 0.00 | 0.00 | 0.00 | 50 | |
| 20260903131511 | 20 | 261 | 17.7 | 20.9 | 0.00 | 0.00 | 0.00 | 51 | |
| 20260903131009 | 20 | 268 | 25.7 | 29.0 | 0.00 | 0.00 | 0.00 | 50 | |
| 20260903130511 | 20 | 261 | 29.0 | 32.2 | 0.00 | 0.00 | 0.00 | 49 | |
| 20260903130011 | 20 | 254 | 25.7 | 29.0 | 0.00 | 0.00 | 0.00 | 50 | |
| 20260903125510 | 20 | 263 | 25.7 | 32.2 | 0.00 | 0.00 | 0.00 | 50 | |
| 20260903125010 | 20 | 266 | 20.9 | 29.0 | 0.00 | 0.00 | 0.00 | 51 | |
| 20260903124511 | 20 | 248 | 25.7 | 29.0 | 0.00 | 0.00 | 0.00 | 50 | |
| 20260903124011 | 20 | 269 | 32.2 | 40.2 | 0.00 | 0.00 | 0.00 | 50 | |
| 20260903123510 | 20 | 243 | 32.2 | 35.4 | 0.00 | 0.00 | 0.00 | 49 | |
| 20260903123010 | 20 | 251 | 32.2 | 35.4 | 0.00 | 0.00 | 0.00 | 48 | |
| 20260903122511 | 20 | 273 | 40.2 | 43.5 | 0.00 | 0.00 | 0.00 | 49 | |
| 20260903122017 | 20 | 255 | 35.4 | 43.5 | 0.00 | 0.00 | 0.00 | 48 | |
| 20260903121511 | 20 | 249 | 40.2 | 46.7 | 0.00 | 0.00 | 0.00 | 49 | |
| 20260903121009 | 20 | 256 | 32.2 | 40.2 | 0.00 | 0.00 | 0.00 | 49 | |
| 20260903120511 | 21 | 245 | 29.0 | 35.4 | 0.00 | 0.00 | 0.00 | 48 | |
| 20260903120015 | 20 | 235 | 25.7 | 32.2 | 0.00 | 0.00 | 0.00 | 49 | |
| 20260903115510 | 20 | 261 | 32.2 | 40.2 | 0.00 | 0.00 | 0.00 | 49 | |
| 20260903115011 | 18 | 262 | 32.2 | 35.4 | 0.00 | 0.00 | 0.00 | 50 | |
| 20260903114511 | 18 | 264 | 35.4 | 40.2 | 0.00 | 0.00 | 0.00 | 51 | |
| 20260903114010 | 18 | 264 | 35.4 | 43.5 | 0.00 | 0.00 | 0.00 | 51 | |
| 20260903113510 | 18 | 256 | 40.2 | 43.5 | 0.00 | 0.00 | 0.00 | 51 | |
| 20260903113011 | 18 | 257 | 35.4 | 40.2 | 0.00 | 0.00 | 0.00 | 52 | |
| 20260903112510 | 18 | 261 | 35.4 | 43.5 | 0.00 | 0.00 | 0.00 | 52 | |
| 20260903112011 | 18 | 255 | 32.2 | 43.5 | 0.00 | 0.00 | 0.00 | 52 | |
| 20260903111510 | 18 | 247 | 35.4 | 43.5 | 0.00 | 0.00 | 0.00 | 52 | |
| 20260903111011 | 18 | 255 | 43.5 | 49.9 | 0.00 | 0.00 | 0.00 | 52 | |
| 20260903110511 | 18 | 259 | 32.2 | 35.4 | 0.00 | 0.00 | 0.00 | 52 | |
| 20260903110010 | 18 | 257 | 32.2 | 35.4 | 0.00 | 0.00 | 0.00 | 51 | |
| 20260903105510 | 18 | 261 | 29.0 | 32.2 | 0.00 | 0.00 | 0.00 | 50 | |
| 20260903105010 | 18 | 261 | 32.2 | 35.4 | 0.00 | 0.00 | 0.00 | 50 | |
| 20260903104511 | 18 | 275 | 35.4 | 40.2 | 0.00 | 0.00 | 0.00 | 49 | |
| 20260903104010 | 18 | 269 | 29.0 | 35.4 | 0.00 | 0.00 | 0.00 | 48 | |
| 20260903103510 | 20 | 252 | 25.7 | 32.2 | 0.00 | 0.00 | 0.00 | 49 | |
| 20260903103010 | 18 | 272 | 32.2 | 35.4 | 0.00 | 0.00 | 0.00 | 48 | |
| 20260903102511 | 18 | 278 | 32.2 | 40.2 | 0.00 | 0.00 | 0.00 | 48 | |
| 20260903102011 | 18 | 265 | 35.4 | 43.5 | 0.00 | 0.00 | 0.00 | 47 | |
| 20260903101510 | 20 | 259 | 29.0 | 32.2 | 0.00 | 0.00 | 0.00 | 47 | |
| 20260903101017 | 20 | 255 | 29.0 | 32.2 | 0.00 | 0.00 | 0.00 | 45 | |
| 20260903100511 | 20 | 261 | 32.2 | 35.4 | 0.00 | 0.00 | 0.00 | 46 | |
| 20260903100010 | 20 | 260 | 29.0 | 32.2 | 0.00 | 0.00 | 0.00 | 47 | |
| 20260903095511 | 20 | 244 | 20.9 | 25.7 | 0.00 | 0.00 | 0.00 | 46 | |
| 20260903095011 | 20 | 263 | 20.9 | 25.7 | 0.00 | 0.00 | 0.00 | 48 | |
| 20260903094512 | 20 | 269 | 29.0 | 32.2 | 0.00 | 0.00 | 0.00 | 47 | |
| 20260903094010 | 18 | 262 | 25.7 | 29.0 | 0.00 | 0.00 | 0.00 | 48 | |
| 20260903093510 | 18 | 283 | 25.7 | 29.0 | 0.00 | 0.00 | 0.00 | 49 | |
| 20260903093011 | 18 | 270 | 29.0 | 35.4 | 0.00 | 0.00 | 0.00 | 48 | |
| 20260903092510 | 18 | 283 | 29.0 | 35.4 | 0.00 | 0.00 | 0.00 | 51 | |
| 20260903092012 | 18 | 267 | 25.7 | 32.2 | 0.00 | 0.00 | 0.00 | 49 | |
| 20260903091510 | 21 | 238 | 20.9 | 32.2 | 0.00 | 0.00 | 0.00 | 46 | |
| 20260903091010 | 20 | 271 | 14.5 | 14.5 | 0.00 | 0.00 | 0.00 | 54 | |
| 20260903090511 | 21 | 250 | 11.3 | 14.5 | 0.00 | 0.00 | 0.00 | 54 | |
| 20260903090011 | 20 | 246 | 11.3 | 14.5 | 0.00 | 0.00 | 0.00 | 56 | |
| 20260903085511 | 18 | 253 | 14.5 | 14.5 | 0.00 | 0.00 | 0.00 | 56 | |
| 20260903085011 | 18 | 243 | 14.5 | 17.7 | 0.00 | 0.00 | 0.00 | 59 | |
| 20260903084511 | 18 | 246 | 6.4 | 11.3 | 0.00 | 0.00 | 0.00 | 58 | |
| 20260903084011 | 18 | 241 | 14.5 | 20.9 | 0.00 | 0.00 | 0.00 | 57 | |
| 20260903083510 | 18 | 225 | 3.2 | 3.2 | 0.00 | 0.00 | 0.00 | 60 | |
| 20260903083010 | 20 | 244 | 6.4 | 6.4 | 0.00 | 0.00 | 0.00 | 59 | |
| 20260903082511 | 18 | 225 | 3.2 | 6.4 | 0.00 | 0.00 | 0.00 | 63 | |
| 20260903082012 | 17 | 204 | 6.4 | 11.3 | 0.00 | 0.00 | 0.00 | 66 | |
| 20260903081510 | 17 | 209 | 6.4 | 11.3 | 0.00 | 0.00 | 0.00 | 64 | |
| 20260903081012 | 17 | 251 | 6.4 | 11.3 | 0.00 | 0.00 | 0.00 | 62 | |
| 20260903080519 | 17 | 250 | 6.4 | 11.3 | 0.00 | 0.00 | 0.00 | 64 | |
| 20260903080011 | 17 | 239 | 6.4 | 11.3 | 0.00 | 0.00 | 0.00 | 63 | |
| 20260903075510 | 17 | 267 | 6.4 | 6.4 | 0.00 | 0.00 | 0.00 | 61 | |
| 20260903075010 | 17 | 257 | 6.4 | 6.4 | 0.00 | 0.00 | 0.00 | 61 | |
| 20260903074511 | 17 | 259 | 3.2 | 6.4 | 0.00 | 0.00 | 0.00 | 61 | |
| 20260903074010 | 17 | 270 | 6.4 | 11.3 | 0.00 | 0.00 | 0.00 | 63 | |
| 20260903073511 | 17 | 267 | 11.3 | 14.5 | 0.00 | 0.00 | 0.00 | 62 | |
| 20260903073011 | 17 | 256 | 6.4 | 11.3 | 0.00 | 0.00 | 0.00 | 65 | |
| 20260903072510 | 17 | 259 | 11.3 | 11.3 | 0.00 | 0.00 | 0.00 | 65 | |
| 20260903072018 | 17 | 262 | 6.4 | 11.3 | 0.00 | 0.00 | 0.00 | 67 | |
| 20260903071511 | 17 | 266 | 11.3 | 14.5 | 0.00 | 0.00 | 0.00 | 68 | |
| 20260903071011 | 17 | 267 | 11.3 | 11.3 | 0.00 | 0.00 | 0.00 | 70 | |
| 20260903070510 | 16 | 273 | 11.3 | 14.5 | 0.00 | 0.00 | 0.00 | 70 | |
| 20260903070011 | 16 | 274 | 11.3 | 14.5 | 0.00 | 0.00 | 0.00 | 70 | |
| 20260903065510 | 16 | 286 | 6.4 | 11.3 | 0.00 | 0.00 | 0.00 | 72 | |
| 20260903065011 | 15 | 283 | 11.3 | 14.5 | 0.00 | 0.00 | 0.00 | 73 | |
| 20260903064511 | 15 | 281 | 11.3 | 14.5 | 0.00 | 0.00 | 0.00 | 73 | |
| 20260903064010 | 15 | 273 | 14.5 | 17.7 | 0.00 | 0.00 | 0.00 | 71 | |
| 20260903063510 | 15 | 276 | 14.5 | 17.7 | 0.00 | 0.00 | 0.00 | 71 | |
| 20260903063010 | 15 | 270 | 14.5 | 17.7 | 0.00 | 0.00 | 0.00 | 68 | |
| 20260903062510 | 16 | 267 | 14.5 | 14.5 | 0.00 | 0.00 | 0.00 | 69 | |
| 20260903062011 | 16 | 272 | 11.3 | 11.3 | 0.00 | 0.00 | 0.00 | 68 | |
| 20260903061510 | 16 | 269 | 11.3 | 11.3 | 0.00 | 0.00 | 0.00 | 68 | |
| 20260903061010 | 16 | 269 | 11.3 | 11.3 | 0.00 | 0.00 | 0.00 | 67 | |
| 20260903060510 | 16 | 270 | 6.4 | 6.4 | 0.00 | 0.00 | 0.00 | 66 | |
| 20260903060010 | 16 | 272 | 6.4 | 6.4 | 0.00 | 0.00 | 0.00 | 66 | |
| 20260903055510 | 16 | 273 | 6.4 | 11.3 | 0.00 | 0.00 | 0.00 | 66 | |
| 20260903055010 | 16 | 277 | 6.4 | 6.4 | 0.00 | 0.00 | 0.00 | 66 | |
| 20260903054510 | 16 | 278 | 6.4 | 6.4 | 0.00 | 0.00 | 0.00 | 66 | |
| 20260903054011 | 16 | 280 | 6.4 | 6.4 | 0.00 | 0.00 | 0.00 | 66 | |
| 20260903053511 | 16 | 278 | 6.4 | 6.4 | 0.00 | 0.00 | 0.00 | 66 | |
| 20260903053010 | 16 | 276 | 6.4 | 6.4 | 0.00 | 0.00 | 0.00 | 67 | |
| 20260903052511 | 16 | 277 | 6.4 | 6.4 | 0.00 | 0.00 | 0.00 | 67 | |
| 20260903052012 | 16 | 280 | 6.4 | 11.3 | 0.00 | 0.00 | 0.00 | 68 | |
| 20260903051511 | 16 | 277 | 6.4 | 6.4 | 0.00 | 0.00 | 0.00 | 68 | |
| 20260903051009 | 15 | 281 | 6.4 | 6.4 | 0.00 | 0.00 | 0.00 | 71 | |
| 20260903050510 | 13 | 283 | 6.4 | 6.4 | 0.00 | 0.00 | 0.00 | 73 | |
| 20260903050010 | 13 | 286 | 6.4 | 11.3 | 0.00 | 0.00 | 0.00 | 73 | |
| 20260903045510 | 13 | 282 | 11.3 | 11.3 | 0.00 | 0.00 | 0.00 | 72 | |
| 20260903045010 | 13 | 287 | 6.4 | 6.4 | 0.00 | 0.00 | 0.00 | 72 | |
| 20260903044510 | 15 | 292 | 3.2 | 6.4 | 0.00 | 0.00 | 0.00 | 71 | |
| 20260903044010 | 15 | 293 | 6.4 | 6.4 | 0.00 | 0.00 | 0.00 | 71 | |
| 20260903043510 | 15 | 298 | 11.3 | 11.3 | 0.00 | 0.00 | 0.00 | 71 | |
| 20260903043011 | 15 | 299 | 11.3 | 14.5 | 0.00 | 0.00 | 0.00 | 71 |